User: anonymous   Login
Location: Chenango Forks
(42.2242°N, 75.8278°W)
Time: 11:31:26
(UTC-05:00)
Language:

Coronas F rocket - Orbit

View from above orbital plane
View from above orbital plane
View from above satellite
View from above satellite

Ground track
Ground track

The orbit data is extracted from the following two-line orbital elements,

1 26874U 01032B   15059.89385501  .00019168  00000-0  23053-3 0  9993
2 26874 082.4669 072.9059 0013201 176.1079 184.0283 15.60581168761218
Epoch (UTC): 28 February 2015 21:27:09
Eccentricity: 0.0013201
inclination: 82.4669°
perigee height: 377 km
apogee height: 395 km
right ascension of ascending node: 72.9059°
argument of perigee: 176.1079°
revolutions per day: 15.60581168
mean anomaly at epoch: 184.0283°
orbit number at epoch: 76121

The dashed part of the orbit path shows where the satellite is in the earth's shadow,  

DLR